Regional Weather Roundup
Issued by NWS

Home | Current Version | Previous Version | Text Only | Print | Product List | Glossary Off
Versions: 1 2 3 4 5 6 7 8 9 10 11 12 13 14 15 16 17 18 19 20 21 22 23 24 25 26 27 28 29 30 31 32 33 34 35 36 37 38 39 40 41 42 43 44 45 46 47 48 49 50

000
ASUS43 KOAX 140302
RWRNE

WEATHER ROUNDUP FOR NEBRASKA
NATIONAL WEATHER SERVICE OMAHA NE
900 PM CST SAT FEB 13 2016

NOTES: SATELLITE DATA IS BEING USED TO AUGMENT CLOUD COVER ABOVE
       12000 FEET.
       "FAIR" INDICATES FEW OR NO CLOUDS BELOW 12,000 FEET WITH NO
       SIGNIFICANT WEATHER AND/OR OBSTRUCTIONS TO VISIBILITY.

  * THESE STATIONS DO NOT REPORT WEATHER SUCH AS RAIN...SNOW OR FOG.

NEZ001>004-019>022-054>056-140400-
NEBRASKA PANHANDLE

CITY           SKY/WX    TMP DP  RH WIND       PRES   REMARKS
SCOTTSBLUFF    CLOUDY    37  30  75 NW17G26   30.00R WCI  27
ALLIANCE       CLOUDY    37  30  75 NW22G36   29.93R WCI  26
CHADRON        PTCLDY    36  32  85 W18G25    29.95R WCI  26
KIMBALL        PTCLDY    36  31  82 NW28G36   30.01R WCI  23
SIDNEY         CLEAR     38  30  73 N25G40    30.00R WCI  27
$$

NEZ057>060-069>072-079>082-140400-
SOUTHWEST NEBRASKA

CITY           SKY/WX    TMP DP  RH WIND       PRES   REMARKS
NORTH PLATTE   CLOUDY    29  24  82 S10       29.94S WCI  20
IMPERIAL       CLOUDY    30  28  92 S12       29.94R WCI  20
MCCOOK         CLOUDY    27  21  78 SE3       29.99R
$$

NEZ005>010-023>029-035>040-094-140400-
NORTH CENTRAL NEBRASKA

CITY           SKY/WX    TMP DP  RH WIND       PRES   REMARKS
VALENTINE      CLOUDY    29  25  85 S21G29    29.81F WCI  16
AINSWORTH      CLOUDY    25  21  85 S24       29.87R WCI   9
BROKEN BOW     CLOUDY    22  14  71 S18       29.96F WCI   7
ORD            CLOUDY    20   9  62 S12G20    30.02R WCI   8
$$

NEZ041-046>049-061>064-073>077-083>087-140400-
SOUTH CENTRAL NEBRASKA

CITY           SKY/WX    TMP DP  RH WIND       PRES   REMARKS
GRAND ISLAND   CLOUDY    18   8  65 SE14      30.07F WCI   4
HASTINGS       PTCLDY    20   7  57 SE13G20   30.04F WCI   7
HEBRON         MOCLDY    22   6  51 SE14G20   30.12S WCI   9
KEARNEY *      CLOUDY    19  10  68 SE13      30.03S WCI   7
$$

NEZ011>018-030>034-042>045-140400-
NORTHEAST NEBRASKA

CITY           SKY/WX    TMP DP  RH WIND       PRES   REMARKS
NORFOLK        CLOUDY    18   8  65 SE20      30.10F WCI   2
BLAIR          CLOUDY    19   5  55 SE12      30.21F WCI   6
COLUMBUS *     CLOUDY    19   1  45 SE13G21   30.13F WCI   7
FREMONT        CLOUDY    18   5  57 SE14      30.20F WCI   4
TEKAMAH        CLOUDY    18   6  59 SE15      30.24F WCI   4
$$

NEZ050>053-065>068-078-088>093-140400-
SOUTHEAST NEBRASKA

CITY           SKY/WX    TMP DP  RH WIND       PRES   REMARKS
LINCOLN        CLOUDY    20   6  55 SE17      30.19F WCI   5
OMAHA EPPLEY   CLOUDY    19   4  51 SE20      30.25F WCI   3
BEATRICE       CLOUDY    21   4  47 SE10G16   30.17F WCI  10
FALLS CITY     CLOUDY    21   3  45 SE10      30.25F WCI  10
NEBRASKA CITY  CLOUDY    19   1  45 SE15      30.23F WCI   5
$$

NEZ044-045-051>053-067-140400-
OMAHA AREA

CITY           SKY/WX    TMP DP  RH WIND       PRES   REMARKS
OMAHA EPPLEY   CLOUDY    19   4  51 SE20      30.25F WCI   3
BLAIR          CLOUDY    19   5  55 SE12      30.21F WCI   6
FREMONT        CLOUDY    18   5  57 SE14      30.20F WCI   4
OFFUTT AFB     CLOUDY    19   3  50 SE16      30.23F WCI   4
WAHOO          CLOUDY    19   9  64 SE15      30.19F WCI   5
$$



USA.gov is the U.S. government's official web portal to all federal, state and local government web resources and services.